Probability
0 0 0 0 0 0 0 0 0 0 0 0 0 0 0 0 0 0 0 0 0 0 0 0 0 0 0 0 0 0 0 0 0 0 0 0 0 0 0 0 0 0 0
0 0 0 0 0 0 0 0 0 0 0 0 0 0 0 0 0 0 0 0 0 0 0 0 0 0 0 0 0 0 0 0 0 0 0 0 0 0 0 0 0 0 0
0 0 0 0 0 0 0 0 0 0 0 0 0 0 0 0 0 0 0 0 0 0 0 0 0 0 0 0 0 0 0 0 0 0 0 0 0 0 0 0 0 0 0
0 0 0 0 0 0 0 0 0 0 0 0 0 0 0 0 0 0 0 0 0 0 0 0 0 0 0 0 0 0 0 0 0 0 0 0 0 0 0 0 0 0 0
0 0 0 0 0 0 0 0 0 0 0 0 0 0 0 0 0 0 0 0 0 0 0 0 0 0 0 0 0 0 0 0 0 0 0 0 0 0 0 0 0 0 0
0 0 0 0 0 0 0 0 0 0 0 0 0 0 0 0 0 0 0 0 0 0 0 0 0 0 0 0 0 0 0 0 0 0 0 0 0 0 0 0 0 0 0
0 0 0 0 0 0 0 0 0 0 0 0 0 0 0 0 0 0 0 0 0 0 0 0 0 0 0 0 0 0 0 0 0 0 0 0 0 0 0 0 0 0 0
0 0 0 0 0 0 0 0 0 0 0 0 0 0 0 0 0 0 0 0 0 0 0 0 0 0 0 0 0 0 0 0 0 0 0 0 0 0 0 0 0 0 0
0 0 0 0 0 0 0 0 0 0 0 0 0 0 0 0 0 0 0 0 0 0 0 0 0 0 0 0 0 0 0 0 0 0 0 0 0 0 0 0 0 0 0
0 0 0 0 0 0 0 0 0 0 0 0 0 0 0 0 0 0 0 0 0 0 0 0 0 0 0 0 0 0 0 0 0 0 0 0 0 0 0 0 0 0 0
0 0 0 0 0 0 0 0 0 0 0 0 0 0 0 0 0 0 0 0 0 0 0 0 0 0 0 0 0 0 0 0 0 0 0 0 0 0 0 0 0 0 0
0 0 0 0 0 0 0 0 0 0 0 0 0 0 0 0 0 0 0 0 0 0 0 0 0 0 0 0 0 0 0 0 0 0 0 0 0 0 0 0 0 0 0
0 0 0 0 0 0 0 0 0 0 0 0 0 0 0 0 0 0 0 0 0 0 0 0 0 0 0 0 0 0 0 0 0 0 0 0 0 0 0 0 0 0 0
0 0 0 0 0 0 0 0 0 0 0 0 0 0 0 0 0 0 0 0 0 0 0 0 0 0 0 0 0 0 0 0 0 0 0 0 0 0 0 0 0 0 0
0 0 0 0 0 0 0 0 0 0 0 0 0 0 0 0 0 0 0 0 0 0 0 0 0 0 0 0 0 0 0 0 0 0 0 0 0 0 0 0 0 0 0
0 0 0 0 0 0 0 0 0 0 0 0 0 0 0 0 0 0 0 0 0 0 0 0 0 0 0 0 0 0 0 0 0 0 0 0 0 0 0 0 0 0 0
0 0 0 0 0 0 0 0 0 0 0 0 0 0 0 0 0 0 0 0 0 0 0 0 0 0 0 0 0 0 0 0 0 0 0 0 0 0 0 0 0 0 0
0 0 0 0 0 0 0 0 0 0 0 0 0 0 0 0 0 0 0 0 0 0 0 0 0 0 0 0 0 0 0 0 0 0 0 0 0 0 0 0 0 0 0
0 0 0 0 0 0 0 0 0 0 0 0 0 0 0 0 0 0 0 0 0 0 0 0 0 0 0 0 0 0 0 0 0 0 0 0 0 0 0 0 0 0 0
0 0 0 0 0 0 0 0 0 0 0 0 0 0 0 0 0 0 0 0 0 0 0 0 0 0 0 0 0 0 0 0 0 0 0 0 0 0 0 0 0 0 0
0 0 0 0 0 0 0 0 0 0 0 0 0 0 0 0 0 0 0 0 0 0 0 0 0 0 0 0 0 0 0 0 0 0 0 0 0 0 0 0 0 0 0
0 0 0 0 0 0 0 0 0 0 0 0 0 0 0 0 0 0 0 0 0 0 0 0 0 0 0 0 0 0 0 0 0 0 0 0 0 0 0 0 0 0 0
0 0 0 0 0 0 0 0 0 0 0 0 0 0 0 0 0 0 0 0 0 0 0 0 0 0 0 0 0 0 0 0 0 0 0 0 0 0 0 0 0 0 0
0 0 0 0 0 0 0 0 0 0 0 0 0 0 0 0 0 0 0 0 0 0 0 0 0 0 0 0 0 0 0 0 0 0 0 0 0 0 0 0 0 0 0
0 0 0 0 0 0 0 0 0 0 0 0 0 0 0 0 0 0 0 0 0 0 0 0 0 0 0 0 0 0 0 0 0 0 0 0 0 0 0 0 0 0 0
0 0 0 0 0 0 0 0 0 0 0 0 0 0 0 0 0 0 0 0 0 0 0 0 0 0 0 0 0 0 0 0 0 0 0 0 0 0 0 0 0 0 0
Height
5713 5704 5695 5686 5676 5667 5657 5649 5641 5634 5628 5623 5618 5613 5607 5601 5594 5588 5582 5577 5572 5567 5563 5560 5556 5553 5550 5548 5545 5543 5541 5539 5538 5539 5538 5539 5542 5545 5548 5551 5554 5556 5558
5694 5684 5674 5664 5655 5646 5638 5631 5625 5620 5617 5613 5608 5603 5597 5591 5585 5579 5573 5568 5563 5559 5555 5552 5549 5546 5543 5540 5538 5536 5534 5533 5533 5534 5534 5535 5537 5540 5543 5546 5549 5552 5555
5675 5664 5654 5645 5637 5629 5623 5618 5615 5612 5608 5604 5599 5594 5589 5583 5577 5571 5565 5560 5555 5550 5546 5544 5542 5539 5536 5533 5531 5529 5528 5528 5528 5529 5530 5531 5533 5536 5539 5542 5546 5549 5552
5656 5645 5635 5628 5623 5618 5615 5612 5609 5605 5601 5597 5592 5586 5581 5575 5570 5565 5559 5553 5548 5543 5539 5537 5535 5534 5531 5529 5526 5524 5522 5522 5523 5524 5525 5527 5529 5532 5536 5540 5543 5547 5550
5641 5631 5624 5619 5616 5613 5610 5607 5604 5600 5595 5590 5585 5580 5575 5571 5566 5561 5555 5549 5544 5540 5536 5533 5531 5529 5527 5525 5522 5520 5518 5518 5518 5519 5521 5522 5524 5528 5533 5538 5542 5545 5548
5635 5627 5621 5617 5614 5611 5608 5604 5600 5595 5590 5585 5580 5576 5571 5566 5561 5557 5552 5547 5542 5538 5534 5531 5528 5526 5524 5522 5519 5517 5515 5514 5515 5516 5517 5519 5521 5526 5531 5536 5540 5544 5546
5636 5629 5623 5618 5614 5610 5606 5601 5596 5591 5585 5580 5575 5570 5565 5560 5556 5551 5547 5543 5539 5535 5531 5528 5525 5523 5522 5520 5517 5515 5513 5513 5514 5515 5516 5518 5521 5526 5530 5535 5539 5542 5545
5638 5631 5626 5620 5615 5610 5605 5599 5592 5586 5580 5574 5568 5563 5558 5553 5549 5545 5541 5538 5535 5532 5528 5525 5522 5521 5520 5518 5516 5514 5512 5512 5513 5515 5517 5519 5522 5526 5530 5534 5538 5542 5545
5639 5633 5627 5621 5615 5608 5602 5595 5587 5580 5573 5567 5561 5555 5550 5545 5541 5538 5535 5532 5530 5527 5525 5522 5519 5518 5517 5516 5515 5513 5511 5511 5512 5514 5517 5520 5523 5527 5530 5534 5539 5542 5546
5640 5633 5627 5620 5613 5606 5599 5591 5583 5575 5567 5560 5554 5548 5543 5538 5534 5531 5528 5526 5524 5522 5520 5518 5516 5515 5514 5514 5514 5513 5511 5510 5511 5514 5518 5521 5524 5527 5530 5534 5539 5544 5548
5640 5633 5626 5619 5612 5603 5595 5586 5577 5569 5561 5553 5547 5541 5536 5532 5528 5524 5521 5519 5517 5516 5515 5515 5513 5512 5512 5513 5513 5513 5512 5512 5513 5516 5519 5523 5526 5529 5532 5535 5540 5545 5550
5639 5633 5626 5618 5610 5601 5592 5582 5572 5564 5556 5549 5542 5536 5530 5526 5522 5518 5515 5512 5511 5510 5510 5510 5510 5510 5510 5511 5512 5513 5513 5513 5515 5518 5521 5525 5529 5532 5535 5538 5542 5547 5552
5639 5632 5624 5617 5609 5600 5590 5580 5570 5561 5554 5547 5540 5534 5528 5523 5518 5514 5511 5507 5505 5504 5504 5506 5507 5507 5508 5509 5511 5513 5515 5516 5517 5520 5524 5527 5531 5535 5538 5542 5546 5550 5555
5638 5631 5624 5616 5608 5598 5588 5578 5568 5560 5553 5546 5539 5533 5527 5521 5515 5510 5506 5504 5502 5500 5500 5501 5503 5505 5507 5508 5511 5514 5516 5518 5520 5523 5526 5529 5533 5537 5541 5545 5549 5553 5558
5639 5631 5624 5616 5607 5597 5588 5578 5569 5561 5553 5546 5539 5532 5525 5518 5511 5505 5501 5499 5498 5497 5496 5498 5500 5503 5505 5507 5510 5514 5517 5520 5522 5525 5528 5532 5535 5539 5543 5547 5551 5556 5560
5639 5632 5624 5616 5607 5597 5588 5578 5569 5561 5553 5545 5537 5530 5522 5515 5508 5502 5496 5493 5493 5494 5494 5494 5497 5500 5503 5506 5509 5513 5517 5520 5523 5526 5530 5534 5537 5541 5545 5549 5552 5556 5560
5639 5632 5624 5616 5607 5598 5588 5578 5569 5561 5553 5545 5536 5528 5520 5513 5507 5500 5494 5490 5490 5492 5492 5493 5494 5498 5501 5505 5508 5512 5515 5519 5522 5526 5530 5534 5538 5542 5546 5550 5554 5557 5560
5640 5633 5625 5617 5608 5599 5589 5579 5569 5560 5551 5543 5534 5526 5519 5513 5507 5501 5495 5491 5490 5491 5492 5492 5493 5496 5499 5503 5507 5511 5514 5517 5520 5524 5528 5533 5537 5541 5546 5550 5553 5557 5560
5641 5634 5626 5618 5609 5600 5590 5581 5571 5561 5552 5543 5534 5526 5519 5513 5507 5501 5497 5493 5492 5492 5492 5493 5494 5496 5498 5502 5506 5510 5514 5517 5520 5523 5527 5532 5536 5540 5545 5549 5553 5556 5560
5643 5635 5628 5619 5610 5601 5592 5582 5573 5563 5553 5544 5535 5527 5519 5513 5507 5502 5498 5496 5494 5494 5494 5494 5494 5496 5498 5502 5506 5510 5514 5517 5520 5523 5527 5531 5535 5539 5544 5548 5552 5556 5560
5644 5637 5629 5620 5611 5602 5594 5584 5575 5565 5555 5546 5537 5528 5520 5514 5508 5503 5499 5497 5495 5495 5495 5495 5495 5496 5498 5502 5506 5510 5514 5518 5521 5525 5528 5531 5535 5539 5544 5548 5552 5557 5561
5646 5638 5630 5622 5613 5604 5596 5587 5577 5568 5558 5548 5539 5531 5523 5516 5510 5505 5502 5499 5497 5496 5496 5496 5497 5497 5499 5502 5506 5510 5515 5519 5523 5526 5529 5533 5537 5541 5545 5550 5554 5559 5563
5648 5641 5633 5624 5615 5606 5598 5590 5581 5571 5562 5552 5543 5534 5526 5520 5514 5509 5505 5502 5499 5497 5497 5497 5499 5499 5501 5503 5507 5511 5515 5520 5524 5528 5531 5535 5539 5543 5547 5551 5556 5560 5564
5650 5643 5635 5627 5618 5609 5601 5593 5585 5576 5566 5557 5547 5539 5531 5524 5518 5514 5510 5506 5504 5501 5500 5500 5501 5502 5503 5505 5509 5513 5517 5521 5525 5529 5533 5537 5540 5544 5548 5552 5557 5561 5565
5652 5645 5638 5630 5622 5613 5605 5597 5589 5581 5572 5563 5554 5545 5537 5531 5525 5520 5516 5512 5509 5507 5506 5505 5505 5506 5507 5508 5511 5515 5519 5523 5527 5531 5535 5539 5542 5546 5550 5554 5558 5562 5567
5654 5648 5640 5633 5625 5617 5610 5602 5594 5586 5578 5570 5561 5553 5546 5540 5534 5529 5524 5520 5516 5514 5513 5511 5511 5511 5512 5514 5516 5519 5523 5527 5530 5533 5537 5540 5544 5548 5551 5555 5559 5563 5568
Wind_Speed
70 74 78 81 83 84 84 81 75 66 58 51 50 50 49 47 45 42 40 39 37 36 34 32 30 29 28 27 28 28 27 27 25 22 22 24 26 26 24 23 22 21 21
77 80 83 83 83 79 73 64 54 46 44 44 44 42 40 38 37 36 35 35 35 33 32 30 28 27 26 27 27 27 26 24 22 18 17 18 20 21 21 20 21 20 19
80 81 80 76 69 60 51 43 39 38 37 37 35 34 35 35 33 33 32 32 32 31 29 27 26 25 24 24 22 21 21 21 19 16 14 16 17 19 19 19 19 18 18
75 70 63 54 45 39 34 32 31 30 29 30 31 32 31 29 27 27 27 26 25 23 21 20 20 20 20 19 18 18 18 18 16 17 16 16 18 20 20 18 17 17 16
55 46 39 32 28 26 24 23 23 24 26 27 26 25 24 23 23 23 23 21 19 17 16 15 15 16 16 15 15 16 15 15 14 16 17 17 19 22 21 19 18 17 15
33 28 23 20 19 18 18 19 21 23 24 23 23 23 24 24 23 22 22 20 18 15 14 13 13 12 12 12 12 12 10 11 10 10 11 12 16 20 22 20 18 17 15
23 21 19 17 17 18 20 22 24 25 26 26 26 27 27 26 25 23 22 20 18 16 14 13 11 9 9 10 9 7 6 8 9 8 8 10 14 17 18 17 16 16 15
19 20 20 20 21 23 24 26 27 28 29 29 29 29 29 28 26 24 23 20 17 15 14 13 10 8 7 5 4 4 4 7 10 11 11 12 13 14 15 16 17 16 14
19 21 23 24 25 26 27 28 29 30 30 30 29 29 29 28 26 25 23 20 17 15 13 12 9 8 6 3 2 4 3 4 11 15 14 13 12 14 15 17 18 17 14
19 22 25 26 28 29 31 32 32 32 32 31 30 28 27 25 24 23 22 20 17 14 11 11 9 7 7 6 3 2 2 4 11 17 17 15 15 15 16 18 19 18 17
20 23 26 28 30 33 35 36 36 34 33 32 31 28 25 23 21 20 19 18 16 13 10 8 7 6 7 7 5 1 3 7 12 17 19 17 16 16 16 18 19 20 20
21 24 27 30 33 36 38 38 36 32 30 29 28 26 23 20 18 16 15 15 14 13 11 9 6 5 6 6 5 5 7 10 13 17 19 18 17 15 15 17 20 21 19
23 27 30 34 37 39 40 38 34 29 28 27 26 23 21 20 20 18 15 11 11 11 11 11 9 6 6 6 7 10 12 14 14 15 17 17 16 15 15 18 20 21 19
24 28 32 36 38 40 40 38 33 28 27 26 26 24 23 22 22 21 18 13 9 9 10 13 13 9 8 9 12 14 16 16 16 16 17 17 17 17 19 20 20 20 18
25 29 33 36 39 41 41 39 33 28 27 28 27 25 24 22 20 18 16 13 9 7 8 12 15 14 12 13 15 18 18 16 15 16 17 17 18 21 21 21 20 19 17
25 29 33 36 40 41 42 39 34 29 29 30 28 26 25 25 24 21 15 10 8 6 7 11 15 17 15 15 18 21 19 15 15 16 17 18 19 21 21 20 18 17 16
25 29 33 36 38 39 40 39 36 32 30 32 31 28 26 25 25 24 19 7 3 3 5 8 13 18 18 17 17 19 18 15 15 18 20 20 21 22 21 19 17 15 16
25 29 33 35 36 37 38 38 37 34 33 34 34 30 26 24 24 22 18 9 2 3 3 5 10 17 20 19 18 17 16 15 15 17 22 23 24 24 22 19 16 15 18
26 29 32 34 36 37 38 38 37 36 34 34 33 29 26 25 23 20 17 11 6 5 4 2 6 15 20 21 20 18 17 16 15 17 20 23 25 24 22 19 18 19 22
27 30 32 35 37 38 38 39 39 38 36 34 32 29 26 25 23 19 14 10 7 6 5 3 3 12 19 22 22 21 19 18 18 18 20 22 23 23 22 21 21 22 24
28 32 35 37 38 38 38 39 39 39 38 36 34 31 28 26 24 20 15 10 7 6 5 5 4 7 17 22 23 23 22 21 20 21 21 21 22 23 23 23 24 24 25
30 34 37 38 39 38 39 39 40 40 40 38 36 33 29 26 24 21 18 15 10 6 4 5 5 6 12 20 23 24 23 22 22 21 22 23 24 24 24 24 25 25 25
31 34 37 39 40 39 39 39 40 40 40 39 37 35 30 27 24 21 19 18 16 11 8 7 6 6 9 16 21 23 23 23 22 22 22 23 24 24 23 24 26 26 25
30 33 36 39 40 39 39 39 39 40 41 40 39 37 33 30 26 23 21 19 18 15 12 10 9 8 9 13 17 21 21 22 22 22 21 21 22 23 23 24 25 26 27
29 32 35 38 39 39 39 39 39 40 41 41 40 38 35 33 31 28 25 22 20 18 15 13 11 10 11 13 15 17 18 19 19 20 20 20 21 22 23 24 24 25 26
29 32 35 36 37 38 39 39 39 39 40 41 41 39 37 35 34 33 30 27 23 21 19 18 16 15 14 14 16 17 16 16 16 17 18 19 20 21 23 23 24 24 25
Wind_Direction
296 295 295 295 296 297 298 299 299 298 296 296 296 298 299 300 301 301 300 299 299 299 297 296 295 294 294 292 291 289 288 289 291 287 274 262 255 252 250 246 245 248 247
298 297 298 298 299 299 300 300 298 297 296 296 297 300 302 305 305 304 302 301 301 300 297 296 296 297 297 295 292 289 285 284 285 279 262 252 245 238 235 235 239 243 245
300 300 299 299 300 301 301 300 300 299 298 298 301 305 308 309 309 308 306 304 303 300 296 293 293 297 300 299 295 290 283 278 273 256 244 242 237 231 231 232 236 238 240
303 302 302 303 304 304 304 304 303 302 303 305 309 311 313 314 316 316 315 312 311 308 302 294 291 296 300 302 298 293 281 273 263 244 241 245 239 229 223 222 223 225 232
310 310 311 312 313 314 314 313 311 311 313 317 321 323 324 325 327 329 329 325 323 318 311 301 294 294 297 303 305 303 283 265 259 247 243 241 230 216 210 208 214 224 230
327 330 333 333 332 331 329 327 326 326 326 326 325 322 320 319 321 326 329 329 326 321 315 306 299 293 293 299 305 302 280 250 245 237 228 219 208 201 200 206 214 220 222
351 358 359 356 352 346 340 336 331 328 324 320 316 314 314 314 316 318 320 322 324 324 317 308 301 292 291 296 301 296 263 221 212 196 186 185 187 187 191 197 201 202 201
356 0 360 356 350 345 340 335 330 325 322 318 316 313 312 311 311 311 311 310 309 313 318 313 297 283 288 298 310 320 285 218 202 184 169 164 165 167 174 181 182 182 186
354 357 357 354 350 345 341 338 333 328 324 320 316 313 311 309 307 304 302 301 298 297 304 314 300 271 260 262 308 346 338 212 194 184 173 165 163 164 167 173 177 178 177
355 357 357 355 352 349 346 341 336 331 326 323 319 316 312 309 305 300 296 293 290 285 283 299 299 261 236 228 244 343 33 160 175 176 172 165 166 171 173 171 173 172 170
1 1 1 359 356 353 349 344 339 335 332 331 329 326 321 315 309 302 295 289 281 273 262 270 287 250 224 220 227 193 102 138 159 167 166 164 163 166 166 165 167 165 164
8 8 6 3 359 356 353 349 345 342 341 341 340 338 334 329 322 312 300 288 275 262 243 233 245 236 214 211 202 156 123 133 150 162 165 161 159 161 161 158 158 158 161
13 12 9 6 2 360 357 354 352 351 350 349 347 344 340 335 331 327 319 300 275 257 233 209 207 211 202 185 159 141 128 127 141 158 168 168 163 164 160 155 155 157 159
14 12 10 7 5 3 2 360 358 357 356 353 350 344 337 330 323 318 316 314 292 261 232 203 191 187 183 176 164 151 139 130 130 142 158 166 168 165 159 153 153 156 159
14 13 10 8 7 6 5 4 3 1 359 356 355 352 349 344 336 322 305 299 296 273 235 203 189 179 170 165 167 166 155 147 142 136 139 149 157 158 155 151 152 156 162
14 11 9 7 7 7 7 7 6 3 360 357 356 356 356 357 357 353 335 295 278 270 237 208 191 180 173 165 164 170 171 169 168 164 159 157 159 159 157 157 159 163 169
11 8 6 6 7 9 9 8 7 4 1 359 355 353 354 358 0 1 360 345 265 241 227 210 192 181 175 172 169 169 174 181 184 183 179 174 172 170 169 171 173 176 177
8 6 5 5 6 8 10 9 8 5 1 359 358 358 358 359 1 5 10 24 79 145 172 197 193 183 178 176 175 174 176 180 183 184 184 183 182 183 185 187 189 186 179
6 6 5 5 6 8 10 10 9 7 4 3 2 2 3 4 6 9 18 35 79 114 123 139 180 184 181 177 176 174 172 172 172 174 178 183 187 188 191 193 192 187 181
9 9 9 9 9 9 10 11 11 10 9 8 8 9 10 10 11 15 22 39 69 94 96 91 145 179 183 181 177 175 171 167 165 165 170 177 183 187 188 187 186 184 181
14 13 12 12 11 11 12 13 13 12 13 13 13 14 15 16 18 23 30 40 63 84 85 79 97 164 182 183 180 177 174 170 167 164 162 166 171 174 176 176 177 176 175
18 17 15 14 13 14 15 16 15 15 16 17 17 19 21 23 26 32 38 42 52 79 110 111 96 126 172 185 183 180 177 174 170 168 165 163 163 163 163 165 167 169 171
17 17 16 15 14 17 17 19 18 18 19 20 21 23 25 28 32 39 43 45 48 62 96 128 129 122 152 177 186 184 180 177 173 170 168 167 168 170 171 172 174 175 177
16 16 16 16 17 18 19 20 21 21 22 24 25 27 31 36 40 45 46 47 51 60 78 101 117 124 140 160 177 184 183 180 176 173 171 170 170 171 173 175 176 177 178
18 18 17 18 19 21 22 23 23 24 26 28 30 33 38 44 47 49 50 52 57 63 71 82 97 112 129 146 159 170 177 178 176 176 176 175 173 173 173 175 178 181 182
20 19 19 20 22 24 25 26 27 28 30 33 34 37 42 47 51 52 54 57 60 65 70 77 87 99 113 128 139 148 157 160 161 166 173 178 179 178 178 179 181 184 187